Time,TemperatureF,DewpointF,PressureIn,WindDirection,WindDirectionDegrees,WindSpeedMPH,WindSpeedGustMPH,Humidity,HourlyPrecipIn,Conditions,Clouds,dailyrainin,SoftwareType,DateUTC
2013-10-09 00:13:00,64.0,48.0,29.89,SW,233,1.0,4.0,57,0.00,,,0.00,,2013-10-09 05:13:00,
2013-10-09 00:22:00,64.0,48.0,29.89,SW,225,1.0,4.0,57,0.00,,,0.00,,2013-10-09 05:22:00,
2013-10-09 00:42:00,63.0,47.0,29.89,SW,215,2.0,5.0,56,0.00,,,0.00,,2013-10-09 05:42:00,
2013-10-09 00:52:00,63.0,47.0,29.88,SW,224,2.0,5.0,55,0.00,,,0.00,,2013-10-09 05:52:00,
2013-10-09 01:12:00,63.0,47.0,29.88,SW,222,1.0,4.0,56,0.00,,,0.00,,2013-10-09 06:12:00,
2013-10-09 01:22:00,62.0,47.0,29.88,SW,222,2.0,6.0,58,0.00,,,0.00,,2013-10-09 06:22:00,
2013-10-09 01:42:00,62.0,48.0,29.88,WSW,240,1.0,5.0,60,0.00,,,0.00,,2013-10-09 06:42:00,
2013-10-09 01:52:00,61.0,48.0,29.88,SSW,207,1.0,5.0,62,0.00,,,0.00,,2013-10-09 06:52:00,
2013-10-09 02:12:00,61.0,49.0,29.88,WSW,249,1.0,5.0,64,0.00,,,0.00,,2013-10-09 07:12:00,
2013-10-09 02:22:00,61.0,49.0,29.88,SSW,210,2.0,5.0,65,0.00,,,0.00,,2013-10-09 07:22:00,
2013-10-09 02:42:00,61.0,50.0,29.88,SW,226,2.0,7.0,68,0.00,,,0.00,,2013-10-09 07:42:00,
2013-10-09 02:52:00,61.0,51.0,29.88,SW,224,2.0,6.0,70,0.00,,,0.00,,2013-10-09 07:52:00,
2013-10-09 03:12:00,61.0,52.0,29.88,WSW,240,1.0,6.0,72,0.00,,,0.00,,2013-10-09 08:12:00,
2013-10-09 03:23:00,60.0,52.0,29.87,WSW,243,2.0,6.0,74,0.00,,,0.00,,2013-10-09 08:23:00,
2013-10-09 03:42:00,60.0,52.0,29.87,SW,225,3.0,7.0,74,0.00,,,0.00,,2013-10-09 08:42:00,
2013-10-09 03:53:00,60.0,52.0,29.87,West,264,2.0,6.0,76,0.00,,,0.00,,2013-10-09 08:53:00,
2013-10-09 04:11:00,59.0,52.0,29.88,SSW,212,1.0,4.0,78,0.00,,,0.00,,2013-10-09 09:11:00,
2013-10-09 04:22:00,59.0,53.0,29.87,WSW,238,1.0,3.0,81,0.00,,,0.00,,2013-10-09 09:22:00,
2013-10-09 04:33:00,59.0,53.0,29.87,WSW,238,1.0,3.0,81,0.00,,,0.00,,2013-10-09 09:33:00,
2013-10-09 04:43:00,59.0,53.0,29.87,WSW,238,1.0,3.0,81,0.00,,,0.00,,2013-10-09 09:43:00,
2013-10-09 04:53:00,58.0,53.0,29.88,WSW,246,1.0,4.0,84,0.00,,,0.00,,2013-10-09 09:53:00,
2013-10-09 05:13:00,58.0,54.0,29.88,SW,218,0.0,3.0,86,0.00,,,0.00,,2013-10-09 10:13:00,
2013-10-09 05:23:00,58.0,54.0,29.88,SW,232,0.0,2.0,86,0.00,,,0.00,,2013-10-09 10:23:00,
2013-10-09 05:43:00,58.0,54.0,29.89,SW,229,0.0,2.0,87,0.00,,,0.00,,2013-10-09 10:43:00,
2013-10-09 05:53:00,58.0,54.0,29.89,SW,217,0.0,2.0,88,0.00,,,0.00,,2013-10-09 10:53:00,
2013-10-09 06:12:00,58.0,55.0,29.90,SSW,212,0.0,2.0,89,0.00,,,0.00,,2013-10-09 11:12:00,
2013-10-09 06:22:00,58.0,55.0,29.90,SSW,212,0.0,2.0,89,0.00,,,0.00,,2013-10-09 11:22:00,
2013-10-09 06:42:00,57.0,54.0,29.90,SW,214,0.0,2.0,90,0.00,,,0.00,,2013-10-09 11:42:00,
2013-10-09 06:52:00,56.0,54.0,29.90,SW,222,0.0,2.0,92,0.00,,,0.00,,2013-10-09 11:52:00,
2013-10-09 07:12:00,56.0,54.0,29.90,SSW,207,0.0,2.0,93,0.00,,,0.00,,2013-10-09 12:12:00,
2013-10-09 07:21:00,56.0,54.0,29.91,SW,232,0.0,1.0,93,0.00,,,0.00,,2013-10-09 12:21:00,
2013-10-09 07:42:00,56.0,54.0,29.91,SSW,204,0.0,1.0,93,0.00,,,0.00,,2013-10-09 12:42:00,
2013-10-09 07:52:00,56.0,54.0,29.91,SW,215,0.0,2.0,94,0.00,,,0.00,,2013-10-09 12:52:00,
2013-10-09 08:11:00,57.0,56.0,29.91,SSW,212,0.0,2.0,95,0.00,,,0.00,,2013-10-09 13:11:00,
2013-10-09 08:22:00,58.0,56.0,29.92,SW,228,0.0,2.0,94,0.00,,,0.00,,2013-10-09 13:22:00,
2013-10-09 08:33:00,58.0,56.0,29.92,SW,228,0.0,2.0,94,0.00,,,0.00,,2013-10-09 13:33:00,
2013-10-09 08:42:00,58.0,56.0,29.92,SW,228,0.0,2.0,94,0.00,,,0.00,,2013-10-09 13:42:00,
2013-10-09 08:52:00,61.0,58.0,29.93,SW,221,0.0,3.0,91,0.00,,,0.00,,2013-10-09 13:52:00,
2013-10-09 09:02:00,61.0,58.0,29.93,SW,221,0.0,3.0,91,0.00,,,0.00,,2013-10-09 14:02:00,
2013-10-09 09:11:00,61.0,58.0,29.93,SW,221,0.0,3.0,91,0.00,,,0.00,,2013-10-09 14:11:00,
2013-10-09 09:22:00,62.0,58.0,29.94,SSW,194,1.0,5.0,88,0.00,,,0.00,,2013-10-09 14:22:00,
2013-10-09 09:32:00,62.0,58.0,29.94,SSW,194,1.0,5.0,88,0.00,,,0.00,,2013-10-09 14:32:00,
2013-10-09 09:42:00,62.0,58.0,29.94,SSW,194,1.0,5.0,88,0.00,,,0.00,,2013-10-09 14:42:00,
2013-10-09 10:11:00,67.0,60.0,29.95,SW,218,1.0,6.0,79,0.00,,,0.00,,2013-10-09 15:11:00,
2013-10-09 10:43:00,71.0,61.0,29.95,SW,229,3.0,7.0,71,0.00,,,0.00,,2013-10-09 15:43:00,
2013-10-09 10:53:00,72.0,62.0,29.95,SSW,206,2.0,9.0,71,0.00,,,0.00,,2013-10-09 15:53:00,
2013-10-09 11:13:00,72.0,61.0,29.95,SSW,211,2.0,7.0,69,0.00,,,0.00,,2013-10-09 16:13:00,
2013-10-09 11:24:00,74.0,62.0,29.96,SSW,205,2.0,7.0,66,0.00,,,0.00,,2013-10-09 16:24:00,
2013-10-09 11:42:00,74.0,61.0,29.96,SW,218,3.0,7.0,63,0.00,,,0.00,,2013-10-09 16:42:00,
2013-10-09 11:52:00,75.0,61.0,29.95,SW,235,1.0,9.0,62,0.00,,,0.00,,2013-10-09 16:52:00,
2013-10-09 12:12:00,76.0,61.0,29.95,SW,224,2.0,6.0,59,0.00,,,0.00,,2013-10-09 17:12:00,
2013-10-09 12:22:00,76.0,61.0,29.95,SW,224,2.0,6.0,59,0.00,,,0.00,,2013-10-09 17:22:00,
2013-10-09 12:33:00,76.0,61.0,29.95,SW,224,2.0,6.0,59,0.00,,,0.00,,2013-10-09 17:33:00,
2013-10-09 12:42:00,76.0,61.0,29.95,SW,224,2.0,6.0,59,0.00,,,0.00,,2013-10-09 17:42:00,
2013-10-09 12:52:00,77.0,60.0,29.94,South,184,1.0,11.0,55,0.00,,,0.00,,2013-10-09 17:52:00,
2013-10-09 13:12:00,78.0,59.0,29.94,SSW,204,2.0,8.0,52,0.00,,,0.00,,2013-10-09 18:12:00,
2013-10-09 13:22:00,79.0,60.0,29.93,SSW,212,0.0,5.0,52,0.00,,,0.00,,2013-10-09 18:22:00,
2013-10-09 13:42:00,79.0,59.0,29.93,SW,218,2.0,9.0,50,0.00,,,0.00,,2013-10-09 18:42:00,
2013-10-09 13:52:00,79.0,58.0,29.92,South,186,4.0,8.0,48,0.00,,,0.00,,2013-10-09 18:52:00,
2013-10-09 14:11:00,80.0,59.0,29.92,SSW,193,2.0,10.0,48,0.00,,,0.00,,2013-10-09 19:11:00,
2013-10-09 14:22:00,81.0,59.0,29.91,SW,224,2.0,7.0,48,0.00,,,0.00,,2013-10-09 19:22:00,
2013-10-09 14:42:00,80.0,59.0,29.90,SW,222,1.0,7.0,49,0.00,,,0.00,,2013-10-09 19:42:00,
2013-10-09 14:52:00,80.0,58.0,29.89,West,274,5.0,9.0,47,0.00,,,0.00,,2013-10-09 19:52:00,
2013-10-09 15:11:00,80.0,58.0,29.89,SSW,204,2.0,7.0,47,0.00,,,0.00,,2013-10-09 20:11:00,
2013-10-09 15:22:00,81.0,59.0,29.88,SW,214,2.0,7.0,48,0.00,,,0.00,,2013-10-09 20:22:00,
2013-10-09 15:43:00,82.0,60.0,29.88,South,175,3.0,6.0,47,0.00,,,0.00,,2013-10-09 20:43:00,
2013-10-09 15:52:00,82.0,61.0,29.87,SSW,212,2.0,7.0,49,0.00,,,0.00,,2013-10-09 20:52:00,
2013-10-09 16:11:00,82.0,60.0,29.87,SSW,204,2.0,7.0,48,0.00,,,0.00,,2013-10-09 21:11:00,
2013-10-09 16:22:00,81.0,60.0,29.87,WSW,257,3.0,8.0,49,0.00,,,0.00,,2013-10-09 21:22:00,
2013-10-09 16:44:00,82.0,60.0,29.86,SSW,193,3.0,8.0,48,0.00,,,0.00,,2013-10-09 21:44:00,
2013-10-09 16:53:00,81.0,59.0,29.85,SSE,154,2.0,10.0,48,0.00,,,0.00,,2013-10-09 21:53:00,
2013-10-09 17:13:00,81.0,59.0,29.85,SSW,210,4.0,11.0,48,0.00,,,0.00,,2013-10-09 22:13:00,
2013-10-09 17:24:00,80.0,58.0,29.85,SSE,154,3.0,11.0,47,0.00,,,0.00,,2013-10-09 22:24:00,
2013-10-09 17:43:00,80.0,57.0,29.85,South,172,1.0,8.0,46,0.00,,,0.00,,2013-10-09 22:43:00,
2013-10-09 17:53:00,80.0,59.0,29.85,SW,218,2.0,6.0,48,0.00,,,0.00,,2013-10-09 22:53:00,
2013-10-09 18:12:00,79.0,58.0,29.85,SSW,210,2.0,6.0,48,0.00,,,0.00,,2013-10-09 23:12:00,
2013-10-09 18:22:00,77.0,57.0,29.85,SW,228,2.0,7.0,51,0.00,,,0.00,,2013-10-09 23:22:00,
2013-10-09 18:53:00,76.0,59.0,29.85,South,186,2.0,6.0,55,0.00,,,0.00,,2013-10-09 23:53:00,
2013-10-09 19:12:00,75.0,58.0,29.85,SSW,211,1.0,6.0,56,0.00,,,0.00,,2013-10-10 00:12:00,
2013-10-09 19:22:00,75.0,59.0,29.85,SW,215,0.0,4.0,58,0.00,,,0.00,,2013-10-10 00:22:00,
2013-10-09 19:42:00,73.0,59.0,29.86,South,176,0.0,2.0,61,0.00,,,0.00,,2013-10-10 00:42:00,
2013-10-09 19:52:00,72.0,59.0,29.86,SW,217,0.0,1.0,63,0.00,,,0.00,,2013-10-10 00:52:00,
2013-10-09 20:11:00,71.0,59.0,29.86,SSW,193,0.0,1.0,66,0.00,,,0.00,,2013-10-10 01:11:00,
2013-10-09 20:21:00,70.0,59.0,29.86,South,190,0.0,1.0,68,0.00,,,0.00,,2013-10-10 01:21:00,
2013-10-09 20:42:00,69.0,58.0,29.86,South,190,0.0,1.0,69,0.00,,,0.00,,2013-10-10 01:42:00,
2013-10-09 20:52:00,68.0,58.0,29.87,South,190,0.0,0.0,71,0.00,,,0.00,,2013-10-10 01:52:00,
2013-10-09 21:12:00,67.0,58.0,29.87,South,190,0.0,0.0,74,0.00,,,0.00,,2013-10-10 02:12:00,
2013-10-09 21:22:00,66.0,57.0,29.88,SW,232,0.0,1.0,74,0.00,,,0.00,,2013-10-10 02:22:00,
2013-10-09 22:12:00,66.0,58.0,29.88,South,181,0.0,0.0,75,0.00,,,0.00,,2013-10-10 03:12:00,
2013-10-09 22:22:00,65.0,57.0,29.89,SSW,193,0.0,2.0,76,0.00,,,0.00,,2013-10-10 03:22:00,
2013-10-09 22:44:00,65.0,57.0,29.89,South,176,0.0,1.0,76,0.00,,,0.00,,2013-10-10 03:44:00,
2013-10-09 22:54:00,65.0,57.0,29.90,SSE,153,0.0,4.0,76,0.00,,,0.00,,2013-10-10 03:54:00,
2013-10-09 23:13:00,65.0,58.0,29.91,SSW,193,0.0,3.0,77,0.00,,,0.00,,2013-10-10 04:13:00,
2013-10-09 23:24:00,65.0,58.0,29.91,SSW,193,0.0,3.0,77,0.00,,,0.00,,2013-10-10 04:24:00,
2013-10-09 23:54:00,65.0,58.0,29.91,SW,218,1.0,5.0,79,0.00,,,0.00,,2013-10-10 04:54:00,